Year,Month,Day,Hour,Minute,Value (Times are PST for temperature in C)
2018,05,05,00,00,10.90
2018,05,05,00,01,10.90
2018,05,05,00,02,10.80
2018,05,05,00,03,10.80
2018,05,05,00,04,10.80
2018,05,05,00,05,10.80
2018,05,05,00,06,10.80
2018,05,05,00,07,10.80
2018,05,05,00,08,10.80
2018,05,05,00,09,10.80
2018,05,05,00,10,10.80
2018,05,05,00,11,10.80
2018,05,05,00,12,10.80
2018,05,05,00,13,10.80
2018,05,05,00,14,10.80
2018,05,05,00,15,10.80
2018,05,05,00,16,10.80
2018,05,05,00,17,10.80
2018,05,05,00,18,10.80
2018,05,05,00,19,10.80
2018,05,05,00,20,10.80
2018,05,05,00,21,10.80
2018,05,05,00,22,10.80
2018,05,05,00,23,10.80
2018,05,05,00,24,10.80
2018,05,05,00,25,10.80
2018,05,05,00,26,10.80
2018,05,05,00,27,10.80
2018,05,05,00,28,10.80
2018,05,05,00,29,10.80
2018,05,05,00,30,10.80
2018,05,05,00,31,10.80
2018,05,05,00,32,10.80
2018,05,05,00,33,10.80
2018,05,05,00,34,10.80
2018,05,05,00,35,10.80
2018,05,05,00,36,10.80
2018,05,05,00,37,10.80
2018,05,05,00,38,10.80
2018,05,05,00,39,10.70
2018,05,05,00,40,10.70
2018,05,05,00,41,10.70
2018,05,05,00,42,10.70
2018,05,05,00,43,10.70
2018,05,05,00,44,10.70
2018,05,05,00,45,10.70
2018,05,05,00,46,10.70
2018,05,05,00,47,10.70
2018,05,05,00,48,10.70
2018,05,05,00,49,10.70
2018,05,05,00,50,10.70
2018,05,05,00,51,10.70
2018,05,05,00,52,10.70
2018,05,05,00,53,10.70
2018,05,05,00,54,10.70
2018,05,05,00,55,10.70
2018,05,05,00,56,10.70
2018,05,05,00,57,10.60
2018,05,05,00,58,10.60
2018,05,05,00,59,10.60
2018,05,05,01,00,10.60
2018,05,05,01,01,10.60
2018,05,05,01,02,10.60
2018,05,05,01,03,10.60
2018,05,05,01,04,10.60
2018,05,05,01,05,10.60
2018,05,05,01,06,10.60
2018,05,05,01,07,10.60
2018,05,05,01,08,10.60
2018,05,05,01,09,10.60
2018,05,05,01,10,10.60
2018,05,05,01,11,10.60
2018,05,05,01,12,10.60
2018,05,05,01,13,10.50
2018,05,05,01,14,10.50
2018,05,05,01,15,10.50
2018,05,05,01,16,10.50
2018,05,05,01,17,10.50
2018,05,05,01,18,10.50
2018,05,05,01,19,10.50
2018,05,05,01,20,10.50
2018,05,05,01,21,10.50
2018,05,05,01,22,10.50
2018,05,05,01,23,10.50
2018,05,05,01,24,10.40
2018,05,05,01,25,10.50
2018,05,05,01,26,10.40
2018,05,05,01,27,10.40
2018,05,05,01,28,10.40
2018,05,05,01,29,10.40
2018,05,05,01,30,10.40
2018,05,05,01,31,10.40
2018,05,05,01,32,10.40
2018,05,05,01,33,10.40
2018,05,05,01,34,10.40
2018,05,05,01,35,10.40
2018,05,05,01,36,10.40
2018,05,05,01,37,10.40
2018,05,05,01,38,10.40
2018,05,05,01,39,10.40
2018,05,05,01,40,10.40
2018,05,05,01,41,10.40
2018,05,05,01,42,10.30
2018,05,05,01,43,10.30
2018,05,05,01,44,10.30
2018,05,05,01,45,10.30
2018,05,05,01,46,10.30
2018,05,05,01,47,10.30
2018,05,05,01,48,10.30
2018,05,05,01,49,10.30
2018,05,05,01,50,10.30
2018,05,05,01,51,10.30
2018,05,05,01,52,10.30
2018,05,05,01,53,10.30
2018,05,05,01,54,10.30
2018,05,05,01,55,10.30
2018,05,05,01,56,10.30
2018,05,05,01,57,10.30
2018,05,05,01,58,10.30
2018,05,05,01,59,10.30
2018,05,05,02,00,10.30
2018,05,05,02,01,10.30
2018,05,05,02,02,10.30
2018,05,05,02,03,10.30
2018,05,05,02,04,10.30
2018,05,05,02,05,10.30
2018,05,05,02,06,10.30
2018,05,05,02,07,10.30
2018,05,05,02,08,10.30
2018,05,05,02,09,10.30
2018,05,05,02,10,10.30
2018,05,05,02,11,10.30
2018,05,05,02,12,10.30
2018,05,05,02,13,10.30
2018,05,05,02,14,10.30
2018,05,05,02,15,10.30
2018,05,05,02,16,10.30
2018,05,05,02,17,10.30
2018,05,05,02,18,10.30
2018,05,05,02,19,10.30
2018,05,05,02,20,10.30
2018,05,05,02,21,10.30
2018,05,05,02,22,10.30
2018,05,05,02,23,10.30
2018,05,05,02,24,10.30
2018,05,05,02,25,10.30
2018,05,05,02,26,10.30
2018,05,05,02,27,10.30
2018,05,05,02,28,10.30
2018,05,05,02,29,10.30
2018,05,05,02,30,10.30
2018,05,05,02,31,10.30
2018,05,05,02,32,10.30
2018,05,05,02,33,10.30
2018,05,05,02,34,10.30
2018,05,05,02,35,10.30
2018,05,05,02,36,10.30
2018,05,05,02,37,10.30
2018,05,05,02,38,10.30
2018,05,05,02,39,10.30
2018,05,05,02,40,10.30
2018,05,05,02,41,10.30
2018,05,05,02,42,10.30
2018,05,05,02,43,10.30
2018,05,05,02,44,10.30
2018,05,05,02,45,10.30
2018,05,05,02,46,10.30
2018,05,05,02,47,10.30
2018,05,05,02,48,10.30
2018,05,05,02,49,10.30
2018,05,05,02,50,10.30
2018,05,05,02,51,10.30
2018,05,05,02,52,10.30
2018,05,05,02,53,10.30
2018,05,05,02,54,10.30
2018,05,05,02,55,10.30
2018,05,05,02,56,10.30
2018,05,05,02,57,10.30
2018,05,05,02,58,10.20
2018,05,05,02,59,10.20
2018,05,05,03,00,10.20
2018,05,05,03,01,10.20
2018,05,05,03,02,10.20
2018,05,05,03,03,10.20
2018,05,05,03,04,10.20
2018,05,05,03,05,10.20
2018,05,05,03,06,10.20
2018,05,05,03,07,10.20
2018,05,05,03,08,10.20
2018,05,05,03,09,10.20
2018,05,05,03,10,10.20
2018,05,05,03,11,10.20
2018,05,05,03,12,10.20
2018,05,05,03,13,10.20
2018,05,05,03,14,10.20
2018,05,05,03,15,10.20
2018,05,05,03,16,10.20
2018,05,05,03,17,10.20
2018,05,05,03,18,10.20
2018,05,05,03,19,10.20
2018,05,05,03,20,10.20
2018,05,05,03,21,10.20
2018,05,05,03,22,10.20
2018,05,05,03,23,10.20
2018,05,05,03,24,10.20
2018,05,05,03,25,10.20
2018,05,05,03,26,10.20
2018,05,05,03,27,10.20
2018,05,05,03,28,10.20
2018,05,05,03,29,10.20
2018,05,05,03,30,10.20
2018,05,05,03,31,10.20
2018,05,05,03,32,10.20
2018,05,05,03,33,10.20
2018,05,05,03,34,10.20
2018,05,05,03,35,10.20
2018,05,05,03,36,10.20
2018,05,05,03,37,10.20
2018,05,05,03,38,10.20
2018,05,05,03,39,10.20
2018,05,05,03,40,10.20
2018,05,05,03,41,10.20
2018,05,05,03,42,10.20
2018,05,05,03,43,10.20
2018,05,05,03,44,10.20
2018,05,05,03,45,10.20
2018,05,05,03,46,10.20
2018,05,05,03,47,10.20
2018,05,05,03,48,10.20
2018,05,05,03,49,10.20
2018,05,05,03,50,10.20
2018,05,05,03,51,10.20
2018,05,05,03,52,10.20
2018,05,05,03,53,10.20
2018,05,05,03,54,10.20
2018,05,05,03,55,10.20
2018,05,05,03,56,10.20
2018,05,05,03,57,10.20
2018,05,05,03,58,10.20
2018,05,05,03,59,10.20
2018,05,05,04,00,10.20
2018,05,05,04,01,10.20
2018,05,05,04,02,10.20
2018,05,05,04,03,10.20
2018,05,05,04,04,10.20
2018,05,05,04,05,10.20
2018,05,05,04,06,10.20
2018,05,05,04,07,10.20
2018,05,05,04,08,10.20
2018,05,05,04,09,10.20
2018,05,05,04,10,10.10
2018,05,05,04,11,10.10
2018,05,05,04,12,10.10
2018,05,05,04,13,10.10
2018,05,05,04,14,10.10
2018,05,05,04,15,10.10
2018,05,05,04,16,10.10
2018,05,05,04,17,10.10
2018,05,05,04,18,10.10
2018,05,05,04,19,10.10
2018,05,05,04,20,10.10
2018,05,05,04,21,10.10
2018,05,05,04,22,10.10
2018,05,05,04,23,10.00
2018,05,05,04,24,10.00
2018,05,05,04,25,10.00
2018,05,05,04,26,10.00
2018,05,05,04,27,10.00
2018,05,05,04,28,10.00
2018,05,05,04,29,10.00
2018,05,05,04,30,10.00
2018,05,05,04,31,10.00
2018,05,05,04,32,10.00
2018,05,05,04,33,10.00
2018,05,05,04,34,9.90
2018,05,05,04,35,9.90
2018,05,05,04,36,9.90
2018,05,05,04,37,9.90
2018,05,05,04,38,9.90
2018,05,05,04,39,9.90
2018,05,05,04,40,9.90
2018,05,05,04,41,9.90
2018,05,05,04,42,9.90
2018,05,05,04,43,9.90
2018,05,05,04,44,9.90
2018,05,05,04,45,9.90
2018,05,05,04,46,9.90
2018,05,05,04,47,9.90
2018,05,05,04,48,9.90
2018,05,05,04,49,9.90
2018,05,05,04,50,9.90
2018,05,05,04,51,9.90
2018,05,05,04,52,9.90
2018,05,05,04,53,9.90
2018,05,05,04,54,9.90
2018,05,05,04,55,9.90
2018,05,05,04,56,9.90
2018,05,05,04,57,9.90
2018,05,05,04,58,9.90
2018,05,05,04,59,9.90
2018,05,05,05,00,9.90
2018,05,05,05,01,9.90
2018,05,05,05,02,9.90
2018,05,05,05,03,9.90
2018,05,05,05,04,9.90
2018,05,05,05,05,9.90
2018,05,05,05,06,9.90
2018,05,05,05,07,9.90
2018,05,05,05,08,9.90
2018,05,05,05,09,9.90
2018,05,05,05,10,9.90
2018,05,05,05,11,9.90
2018,05,05,05,12,9.90
2018,05,05,05,13,9.90
2018,05,05,05,14,9.90
2018,05,05,05,15,9.90
2018,05,05,05,16,9.90
2018,05,05,05,17,9.90
2018,05,05,05,18,9.90
2018,05,05,05,19,9.90
2018,05,05,05,20,9.90
2018,05,05,05,21,9.90
2018,05,05,05,22,9.90
2018,05,05,05,23,9.90
2018,05,05,05,24,9.90
2018,05,05,05,25,9.90
2018,05,05,05,26,9.90
2018,05,05,05,27,9.90
2018,05,05,05,28,9.90
2018,05,05,05,29,9.90
2018,05,05,05,30,9.90
2018,05,05,05,31,9.90
2018,05,05,05,32,9.90
2018,05,05,05,33,9.90
2018,05,05,05,34,9.90
2018,05,05,05,35,9.90
2018,05,05,05,36,9.90
2018,05,05,05,37,9.90
2018,05,05,05,38,9.90
2018,05,05,05,39,9.90
2018,05,05,05,40,9.90
2018,05,05,05,41,9.90
2018,05,05,05,42,9.90
2018,05,05,05,43,9.90
2018,05,05,05,44,9.90
2018,05,05,05,45,9.90
2018,05,05,05,46,9.90
2018,05,05,05,47,9.90
2018,05,05,05,48,9.90
2018,05,05,05,49,9.90
2018,05,05,05,50,9.90
2018,05,05,05,51,9.90
2018,05,05,05,52,9.90
2018,05,05,05,53,9.90
2018,05,05,05,54,9.90
2018,05,05,05,55,9.90
2018,05,05,05,56,9.80
2018,05,05,05,57,9.80
2018,05,05,05,58,9.80
2018,05,05,05,59,9.80
2018,05,05,06,00,9.80
2018,05,05,06,01,9.80
2018,05,05,06,02,9.80
2018,05,05,06,03,9.80
2018,05,05,06,04,9.80
2018,05,05,06,05,9.80
2018,05,05,06,06,9.80
2018,05,05,06,07,9.80
2018,05,05,06,08,9.80
2018,05,05,06,09,9.80
2018,05,05,06,10,9.80
2018,05,05,06,11,9.80
2018,05,05,06,12,9.80
2018,05,05,06,13,9.80
2018,05,05,06,14,9.80
2018,05,05,06,15,9.80
2018,05,05,06,16,9.80
2018,05,05,06,17,9.80
2018,05,05,06,18,9.80
2018,05,05,06,19,9.80
2018,05,05,06,20,9.80
2018,05,05,06,21,9.80
2018,05,05,06,22,9.70
2018,05,05,06,23,9.70
2018,05,05,06,24,9.70
2018,05,05,06,25,9.70
2018,05,05,06,26,9.70
2018,05,05,06,27,9.70
2018,05,05,06,28,9.70
2018,05,05,06,29,9.70
2018,05,05,06,30,9.70
2018,05,05,06,31,9.70
2018,05,05,06,32,9.70
2018,05,05,06,33,9.70
2018,05,05,06,34,9.70
2018,05,05,06,35,9.70
2018,05,05,06,36,9.60
2018,05,05,06,37,9.60
2018,05,05,06,38,9.60
2018,05,05,06,39,9.60
2018,05,05,06,40,9.60
2018,05,05,06,41,9.60
2018,05,05,06,42,9.60
2018,05,05,06,43,9.60
2018,05,05,06,44,9.60
2018,05,05,06,45,9.60
2018,05,05,06,46,9.60
2018,05,05,06,47,9.60
2018,05,05,06,48,9.60
2018,05,05,06,49,9.50
2018,05,05,06,50,9.50
2018,05,05,06,51,9.50
2018,05,05,06,52,9.50
2018,05,05,06,53,9.40
2018,05,05,06,54,9.40
2018,05,05,06,55,9.40
2018,05,05,06,56,9.40
2018,05,05,06,57,9.40
2018,05,05,06,58,9.40
2018,05,05,06,59,9.40
2018,05,05,07,00,9.40
2018,05,05,07,01,9.40
2018,05,05,07,02,9.40
2018,05,05,07,03,9.40
2018,05,05,07,04,9.40
2018,05,05,07,05,9.40
2018,05,05,07,06,9.40
2018,05,05,07,07,9.40
2018,05,05,07,08,9.40
2018,05,05,07,09,9.40
2018,05,05,07,10,9.40
2018,05,05,07,11,9.40
2018,05,05,07,12,9.40
2018,05,05,07,13,9.30
2018,05,05,07,14,9.30
2018,05,05,07,15,9.30
2018,05,05,07,16,9.30
2018,05,05,07,17,9.30
2018,05,05,07,18,9.30
2018,05,05,07,19,9.30
2018,05,05,07,20,9.30
2018,05,05,07,21,9.30
2018,05,05,07,22,9.30
2018,05,05,07,23,9.30
2018,05,05,07,24,9.30
2018,05,05,07,25,9.30
2018,05,05,07,26,9.30
2018,05,05,07,27,9.30
2018,05,05,07,28,9.30
2018,05,05,07,29,9.30
2018,05,05,07,30,9.30
2018,05,05,07,31,9.30
2018,05,05,07,32,9.30
2018,05,05,07,33,9.30
2018,05,05,07,34,9.30
2018,05,05,07,35,9.30
2018,05,05,07,36,9.30
2018,05,05,07,37,9.40
2018,05,05,07,38,9.40
2018,05,05,07,39,9.40
2018,05,05,07,40,9.40
2018,05,05,07,41,9.40
2018,05,05,07,42,9.40
2018,05,05,07,43,9.50
2018,05,05,07,44,9.50
2018,05,05,07,45,9.50
2018,05,05,07,46,9.50
2018,05,05,07,47,9.50
2018,05,05,07,48,9.60
2018,05,05,07,49,9.60
2018,05,05,07,50,9.60
2018,05,05,07,51,9.60
2018,05,05,07,52,9.60
2018,05,05,07,53,9.60
2018,05,05,07,54,9.60
2018,05,05,07,55,9.60
2018,05,05,07,56,9.70
2018,05,05,07,57,9.70
2018,05,05,07,58,9.70
2018,05,05,07,59,9.70
2018,05,05,08,00,9.70
2018,05,05,08,01,9.70
2018,05,05,08,02,9.70
2018,05,05,08,03,9.80
2018,05,05,08,04,9.80
2018,05,05,08,05,9.80
2018,05,05,08,06,9.90
2018,05,05,08,07,9.90
2018,05,05,08,08,9.90
2018,05,05,08,09,10.00
2018,05,05,08,10,10.00
2018,05,05,08,11,10.10
2018,05,05,08,12,10.10
2018,05,05,08,13,10.10
2018,05,05,08,14,10.20
2018,05,05,08,15,10.20
2018,05,05,08,16,10.30
2018,05,05,08,17,10.40
2018,05,05,08,18,10.50
2018,05,05,08,19,10.50
2018,05,05,08,20,10.60
2018,05,05,08,21,10.60
2018,05,05,08,22,10.60
2018,05,05,08,23,10.60
2018,05,05,08,24,10.70
2018,05,05,08,25,10.70
2018,05,05,08,26,10.70
2018,05,05,08,27,10.70
2018,05,05,08,28,10.70
2018,05,05,08,29,10.70
2018,05,05,08,30,10.70
2018,05,05,08,31,10.70
2018,05,05,08,32,10.70
2018,05,05,08,33,10.70
2018,05,05,08,34,10.70
2018,05,05,08,35,10.70
2018,05,05,08,36,10.70
2018,05,05,08,37,10.80
2018,05,05,08,38,10.80
2018,05,05,08,39,10.80
2018,05,05,08,40,10.80
2018,05,05,08,41,10.90
2018,05,05,08,42,10.90
2018,05,05,08,43,11.00
2018,05,05,08,44,11.00
2018,05,05,08,45,11.10
2018,05,05,08,46,11.20
2018,05,05,08,47,11.30
2018,05,05,08,48,11.40
2018,05,05,08,49,11.60
2018,05,05,08,50,11.70
2018,05,05,08,51,11.80
2018,05,05,08,52,11.90
2018,05,05,08,53,12.00
2018,05,05,08,54,12.10
2018,05,05,08,55,12.20
2018,05,05,08,56,12.30
2018,05,05,08,57,12.40
2018,05,05,08,58,12.50
2018,05,05,08,59,12.60
2018,05,05,09,00,12.60
2018,05,05,09,01,12.70
2018,05,05,09,02,12.70
2018,05,05,09,03,12.80
2018,05,05,09,04,12.80
2018,05,05,09,05,12.80
2018,05,05,09,06,12.80
2018,05,05,09,07,12.80
2018,05,05,09,08,12.80
2018,05,05,09,09,12.80
2018,05,05,09,10,12.80
2018,05,05,09,11,12.80
2018,05,05,09,12,12.80
2018,05,05,09,13,12.80
2018,05,05,09,14,12.80
2018,05,05,09,15,12.80
2018,05,05,09,16,12.90
2018,05,05,09,17,12.90
2018,05,05,09,18,12.90
2018,05,05,09,19,12.90
2018,05,05,09,20,12.90
2018,05,05,09,21,13.00
2018,05,05,09,22,13.10
2018,05,05,09,23,13.10
2018,05,05,09,24,13.20
2018,05,05,09,25,13.30
2018,05,05,09,26,13.40
2018,05,05,09,27,13.50
2018,05,05,09,28,13.60
2018,05,05,09,29,13.60
2018,05,05,09,30,13.70
2018,05,05,09,31,13.80
2018,05,05,09,32,13.80
2018,05,05,09,33,13.80
2018,05,05,09,34,13.80
2018,05,05,09,35,13.80
2018,05,05,09,36,13.80
2018,05,05,09,37,13.80
2018,05,05,09,38,13.90
2018,05,05,09,39,13.90
2018,05,05,09,40,13.90
2018,05,05,09,41,13.90
2018,05,05,09,42,13.90
2018,05,05,09,43,14.00
2018,05,05,09,44,14.00
2018,05,05,09,45,14.00
2018,05,05,09,46,14.10
2018,05,05,09,47,14.10
2018,05,05,09,48,14.20
2018,05,05,09,49,14.20
2018,05,05,09,50,14.20
2018,05,05,09,51,14.20
2018,05,05,09,52,14.20
2018,05,05,09,53,14.20
2018,05,05,09,54,14.20
2018,05,05,09,55,14.20
2018,05,05,09,56,14.30
2018,05,05,09,57,14.30
2018,05,05,09,58,14.40
2018,05,05,09,59,14.40
2018,05,05,10,00,14.40
2018,05,05,10,01,14.50
2018,05,05,10,02,14.50
2018,05,05,10,03,14.50
2018,05,05,10,04,14.50
2018,05,05,10,05,14.40
2018,05,05,10,06,14.40
2018,05,05,10,07,14.30
2018,05,05,10,08,14.40
2018,05,05,10,09,14.40
2018,05,05,10,10,14.40
2018,05,05,10,11,14.50
2018,05,05,10,12,14.50
2018,05,05,10,13,14.60
2018,05,05,10,14,14.70
2018,05,05,10,15,14.80
2018,05,05,10,16,14.80
2018,05,05,10,17,14.80
2018,05,05,10,18,14.80
2018,05,05,10,19,14.80
2018,05,05,10,20,14.80
2018,05,05,10,21,14.80
2018,05,05,10,22,14.90
2018,05,05,10,23,14.90
2018,05,05,10,24,14.90
2018,05,05,10,25,14.90
2018,05,05,10,26,15.00
2018,05,05,10,27,15.00
2018,05,05,10,28,15.00
2018,05,05,10,29,15.00
2018,05,05,10,30,15.00
2018,05,05,10,31,15.00
2018,05,05,10,32,15.00
2018,05,05,10,33,15.00
2018,05,05,10,34,15.00
2018,05,05,10,35,15.10
2018,05,05,10,36,15.10
2018,05,05,10,37,15.20
2018,05,05,10,38,15.20
2018,05,05,10,39,15.30
2018,05,05,10,40,15.30
2018,05,05,10,41,15.40
2018,05,05,10,42,15.40
2018,05,05,10,43,15.50
2018,05,05,10,44,15.60
2018,05,05,10,45,15.60
2018,05,05,10,46,15.70
2018,05,05,10,47,15.80
2018,05,05,10,48,15.90
2018,05,05,10,49,16.00
2018,05,05,10,50,16.10
2018,05,05,10,51,16.20
2018,05,05,10,52,16.20
2018,05,05,10,53,16.20
2018,05,05,10,54,16.20
2018,05,05,10,55,16.20
2018,05,05,10,56,16.20
2018,05,05,10,57,16.20
2018,05,05,10,58,16.20
2018,05,05,10,59,16.20
2018,05,05,11,00,16.20
2018,05,05,11,01,16.20
2018,05,05,11,02,16.20
2018,05,05,11,03,16.10
2018,05,05,11,04,16.10
2018,05,05,11,05,16.10
2018,05,05,11,06,16.10
2018,05,05,11,07,16.10
2018,05,05,11,08,16.10
2018,05,05,11,09,16.10
2018,05,05,11,10,16.20
2018,05,05,11,11,16.20
2018,05,05,11,12,16.20
2018,05,05,11,13,16.20
2018,05,05,11,14,16.30
2018,05,05,11,15,16.40
2018,05,05,11,16,16.50
2018,05,05,11,17,16.50
2018,05,05,11,18,16.60
2018,05,05,11,19,16.60
2018,05,05,11,20,16.60
2018,05,05,11,21,16.60
2018,05,05,11,22,16.60
2018,05,05,11,23,16.60
2018,05,05,11,24,16.60
2018,05,05,11,25,16.60
2018,05,05,11,26,16.60
2018,05,05,11,27,16.70
2018,05,05,11,28,16.80
2018,05,05,11,29,16.90
2018,05,05,11,30,16.90
2018,05,05,11,31,17.00
2018,05,05,11,32,17.10
2018,05,05,11,33,17.20
2018,05,05,11,34,17.30
2018,05,05,11,35,17.40
2018,05,05,11,36,17.50
2018,05,05,11,37,17.60
2018,05,05,11,38,17.80
2018,05,05,11,39,17.90
2018,05,05,11,40,17.90
2018,05,05,11,41,17.90
2018,05,05,11,42,17.80
2018,05,05,11,43,17.80
2018,05,05,11,44,17.80
2018,05,05,11,45,17.90
2018,05,05,11,46,17.90
2018,05,05,11,47,18.00
2018,05,05,11,48,18.10
2018,05,05,11,49,18.10
2018,05,05,11,50,18.10
2018,05,05,11,51,18.10
2018,05,05,11,52,18.10
2018,05,05,11,53,18.10
2018,05,05,11,54,18.20
2018,05,05,11,55,18.20
2018,05,05,11,56,18.30
2018,05,05,11,57,18.30
2018,05,05,11,58,18.40
2018,05,05,11,59,18.40
2018,05,05,12,00,18.30
2018,05,05,12,01,18.40
2018,05,05,12,02,18.40
2018,05,05,12,03,18.40
2018,05,05,12,04,18.40
2018,05,05,12,05,18.40
2018,05,05,12,06,18.50
2018,05,05,12,07,18.60
2018,05,05,12,08,18.60
2018,05,05,12,09,18.70
2018,05,05,12,10,18.80
2018,05,05,12,11,18.90
2018,05,05,12,12,18.90
2018,05,05,12,13,18.90
2018,05,05,12,14,18.90
2018,05,05,12,15,18.90
2018,05,05,12,16,18.80
2018,05,05,12,17,18.80
2018,05,05,12,18,18.80
2018,05,05,12,19,18.70
2018,05,05,12,20,18.70
2018,05,05,12,21,18.70
2018,05,05,12,22,18.70
2018,05,05,12,23,18.80
2018,05,05,12,24,18.80
2018,05,05,12,25,18.90
2018,05,05,12,26,19.00
2018,05,05,12,27,19.10
2018,05,05,12,28,19.20
2018,05,05,12,29,19.30
2018,05,05,12,30,19.40
2018,05,05,12,31,19.40
2018,05,05,12,32,19.50
2018,05,05,12,33,19.50
2018,05,05,12,34,19.60
2018,05,05,12,35,19.70
2018,05,05,12,36,19.80
2018,05,05,12,37,19.80
2018,05,05,12,38,19.80
2018,05,05,12,39,19.90
2018,05,05,12,40,19.80
2018,05,05,12,41,19.80
2018,05,05,12,42,19.80
2018,05,05,12,43,19.80
2018,05,05,12,44,19.80
2018,05,05,12,45,19.80
2018,05,05,12,46,19.80
2018,05,05,12,47,19.80
2018,05,05,12,48,19.80
2018,05,05,12,49,19.80
2018,05,05,12,50,19.80
2018,05,05,12,51,19.80
2018,05,05,12,52,19.80
2018,05,05,12,53,19.70
2018,05,05,12,54,19.70
2018,05,05,12,55,19.70
2018,05,05,12,56,19.80
2018,05,05,12,57,19.80
2018,05,05,12,58,19.90
2018,05,05,12,59,19.90
2018,05,05,13,00,19.90
2018,05,05,13,01,19.90
2018,05,05,13,02,19.80
2018,05,05,13,03,19.80
2018,05,05,13,04,19.80
2018,05,05,13,05,19.90
2018,05,05,13,06,19.90
2018,05,05,13,07,20.00
2018,05,05,13,08,20.10
2018,05,05,13,09,20.20
2018,05,05,13,10,20.30
2018,05,05,13,11,20.40
2018,05,05,13,12,20.60
2018,05,05,13,13,20.70
2018,05,05,13,14,20.90
2018,05,05,13,15,21.00
2018,05,05,13,16,21.00
2018,05,05,13,17,21.00
2018,05,05,13,18,21.00
2018,05,05,13,19,21.00
2018,05,05,13,20,21.10
2018,05,05,13,21,21.10
2018,05,05,13,22,21.10
2018,05,05,13,23,21.00
2018,05,05,13,24,20.90
2018,05,05,13,25,20.90
2018,05,05,13,26,20.90
2018,05,05,13,27,20.80
2018,05,05,13,28,20.80
2018,05,05,13,29,20.70
2018,05,05,13,30,20.70
2018,05,05,13,31,20.70
2018,05,05,13,32,20.80
2018,05,05,13,33,20.80
2018,05,05,13,34,20.90
2018,05,05,13,35,20.90
2018,05,05,13,36,20.90
2018,05,05,13,37,21.00
2018,05,05,13,38,21.10
2018,05,05,13,39,21.30
2018,05,05,13,40,21.30
2018,05,05,13,41,21.30
2018,05,05,13,42,21.30
2018,05,05,13,43,21.40
2018,05,05,13,44,21.40
2018,05,05,13,45,21.50
2018,05,05,13,46,21.50
2018,05,05,13,47,21.60
2018,05,05,13,48,21.60
2018,05,05,13,49,21.50
2018,05,05,13,50,21.60
2018,05,05,13,51,21.50
2018,05,05,13,52,21.50
2018,05,05,13,53,21.40
2018,05,05,13,54,21.30
2018,05,05,13,55,21.30
2018,05,05,13,56,21.40
2018,05,05,13,57,21.50
2018,05,05,13,58,21.50
2018,05,05,13,59,21.60
2018,05,05,14,00,21.60
2018,05,05,14,01,21.70
2018,05,05,14,02,21.70
2018,05,05,14,03,21.80
2018,05,05,14,04,21.90
2018,05,05,14,05,21.90
2018,05,05,14,06,22.00
2018,05,05,14,07,22.00
2018,05,05,14,08,22.10
2018,05,05,14,09,22.10
2018,05,05,14,10,22.10
2018,05,05,14,11,22.10
2018,05,05,14,12,22.10
2018,05,05,14,13,22.10
2018,05,05,14,14,22.10
2018,05,05,14,15,22.00
2018,05,05,14,16,21.90
2018,05,05,14,17,21.90
2018,05,05,14,18,21.90
2018,05,05,14,19,21.90
2018,05,05,14,20,21.90
2018,05,05,14,21,21.90
2018,05,05,14,22,21.90
2018,05,05,14,23,22.00
2018,05,05,14,24,22.10
2018,05,05,14,25,22.20
2018,05,05,14,26,22.30
2018,05,05,14,27,22.30
2018,05,05,14,28,22.40
2018,05,05,14,29,22.40
2018,05,05,14,30,22.40
2018,05,05,14,31,22.30
2018,05,05,14,32,22.30
2018,05,05,14,33,22.30
2018,05,05,14,34,22.30
2018,05,05,14,35,22.30
2018,05,05,14,36,22.30
2018,05,05,14,37,22.30
2018,05,05,14,38,22.30
2018,05,05,14,39,22.30
2018,05,05,14,40,22.20
2018,05,05,14,41,22.30
2018,05,05,14,42,22.40
2018,05,05,14,43,22.50
2018,05,05,14,44,22.70
2018,05,05,14,45,22.90
2018,05,05,14,46,23.10
2018,05,05,14,47,23.30
2018,05,05,14,48,23.50
2018,05,05,14,49,23.50
2018,05,05,14,50,23.50
2018,05,05,14,51,23.30
2018,05,05,14,52,23.20
2018,05,05,14,53,23.10
2018,05,05,14,54,23.10
2018,05,05,14,55,23.10
2018,05,05,14,56,23.10
2018,05,05,14,57,23.10
2018,05,05,14,58,23.00
2018,05,05,14,59,22.90
2018,05,05,15,00,22.90
2018,05,05,15,01,22.90
2018,05,05,15,02,22.90
2018,05,05,15,03,22.90
2018,05,05,15,04,22.90
2018,05,05,15,05,22.90
2018,05,05,15,06,23.00
2018,05,05,15,07,23.00
2018,05,05,15,08,23.10
2018,05,05,15,09,23.10
2018,05,05,15,10,23.00
2018,05,05,15,11,23.00
2018,05,05,15,12,22.90
2018,05,05,15,13,22.90
2018,05,05,15,14,23.00
2018,05,05,15,15,23.10
2018,05,05,15,16,23.20
2018,05,05,15,17,23.20
2018,05,05,15,18,23.20
2018,05,05,15,19,23.20
2018,05,05,15,20,23.40
2018,05,05,15,21,23.40
2018,05,05,15,22,23.50
2018,05,05,15,23,23.50
2018,05,05,15,24,23.50
2018,05,05,15,25,23.50
2018,05,05,15,26,23.40
2018,05,05,15,27,23.40
2018,05,05,15,28,23.30
2018,05,05,15,29,23.20
2018,05,05,15,30,23.20
2018,05,05,15,31,23.30
2018,05,05,15,32,23.30
2018,05,05,15,33,23.40
2018,05,05,15,34,23.60
2018,05,05,15,35,23.70
2018,05,05,15,36,23.80
2018,05,05,15,37,23.90
2018,05,05,15,38,24.00
2018,05,05,15,39,24.10
2018,05,05,15,40,24.10
2018,05,05,15,41,24.20
2018,05,05,15,42,24.30
2018,05,05,15,43,24.30
2018,05,05,15,44,24.30
2018,05,05,15,45,24.20
2018,05,05,15,46,24.10
2018,05,05,15,47,23.90
2018,05,05,15,48,23.70
2018,05,05,15,49,23.60
2018,05,05,15,50,23.50
2018,05,05,15,51,23.50
2018,05,05,15,52,23.40
2018,05,05,15,53,23.40
2018,05,05,15,54,23.40
2018,05,05,15,55,23.40
2018,05,05,15,56,23.50
2018,05,05,15,57,23.60
2018,05,05,15,58,23.70
2018,05,05,15,59,23.70
2018,05,05,16,00,23.80
2018,05,05,16,01,23.80
2018,05,05,16,02,23.80
2018,05,05,16,03,23.70
2018,05,05,16,04,23.70
2018,05,05,16,05,23.70
2018,05,05,16,06,23.70
2018,05,05,16,07,23.70
2018,05,05,16,08,23.70
2018,05,05,16,09,23.70
2018,05,05,16,10,23.70
2018,05,05,16,11,23.70
2018,05,05,16,12,23.70
2018,05,05,16,13,23.80
2018,05,05,16,14,23.90
2018,05,05,16,15,23.90
2018,05,05,16,16,24.00
2018,05,05,16,17,24.00
2018,05,05,16,18,24.10
2018,05,05,16,19,24.20
2018,05,05,16,20,24.30
2018,05,05,16,21,24.30
2018,05,05,16,22,24.30
2018,05,05,16,23,24.30
2018,05,05,16,24,24.30
2018,05,05,16,25,24.30
2018,05,05,16,26,24.30
2018,05,05,16,27,24.20
2018,05,05,16,28,24.20
2018,05,05,16,29,24.20
2018,05,05,16,30,24.20
2018,05,05,16,31,24.10
2018,05,05,16,32,24.10
2018,05,05,16,33,24.10
2018,05,05,16,34,24.00
2018,05,05,16,35,24.00
2018,05,05,16,36,24.10
2018,05,05,16,37,24.10
2018,05,05,16,38,24.00
2018,05,05,16,39,24.00
2018,05,05,16,40,23.90
2018,05,05,16,41,23.90
2018,05,05,16,42,23.80
2018,05,05,16,43,23.80
2018,05,05,16,44,23.80
2018,05,05,16,45,23.80
2018,05,05,16,46,23.80
2018,05,05,16,47,23.80
2018,05,05,16,48,23.80
2018,05,05,16,49,23.80
2018,05,05,16,50,23.80
2018,05,05,16,51,23.80
2018,05,05,16,52,23.80
2018,05,05,16,53,23.90
2018,05,05,16,54,24.00
2018,05,05,16,55,24.10
2018,05,05,16,56,24.30
2018,05,05,16,57,24.50
2018,05,05,16,58,24.70
2018,05,05,16,59,24.70
2018,05,05,17,00,24.70
2018,05,05,17,01,24.80
2018,05,05,17,02,24.70
2018,05,05,17,03,24.70
2018,05,05,17,04,24.60
2018,05,05,17,05,24.50
2018,05,05,17,06,24.40
2018,05,05,17,07,24.30
2018,05,05,17,08,24.20
2018,05,05,17,09,24.10
2018,05,05,17,10,23.90
2018,05,05,17,11,23.90
2018,05,05,17,12,23.80
2018,05,05,17,13,23.80
2018,05,05,17,14,23.90
2018,05,05,17,15,23.90
2018,05,05,17,16,24.00
2018,05,05,17,17,24.00
2018,05,05,17,18,24.10
2018,05,05,17,19,24.10
2018,05,05,17,20,24.20
2018,05,05,17,21,24.20
2018,05,05,17,22,24.20
2018,05,05,17,23,24.10
2018,05,05,17,24,24.00
2018,05,05,17,25,23.90
2018,05,05,17,26,23.90
2018,05,05,17,27,23.90
2018,05,05,17,28,23.90